Ignacio, CO

3:58 AM MST on January 21, 2017 (GMT -0700)
Durango

Weather History for KDRO - January, 2017

Change the Weather History Date:

Wednesday, January 11, 2017

  Actual Average Record
Temperature  
Mean Temperature 37 °F 23 °F  
Max Temperature 44 °F 37 °F 54 °F (1990)
Min Temperature 30 °F 9 °F -17 °F (2016)
Degree Days  
Heating Degree Days 28 42  
Month to date heating degree days 461  
Since 1 July heating degree days 3335  
Cooling Degree Days 0 0  
Month to date cooling degree days 0  
Year to date cooling degree days 0  
Moisture  
Dew Point 24 °F    
Average Humidity 64    
Maximum Humidity 85    
Minimum Humidity 42    
Precipitation  
Precipitation 0.00 in 0.04 in 0.62 in (2005)
Month to date precipitation 0.39  
Year to date precipitation 0.39  
Sea Level Pressure  
Sea Level Pressure 29.89 in    
Wind  
Wind Speed 6 mph (West)    
Max Wind Speed 28 mph    
Max Gust Speed 37 mph    
Visibility 10 miles    
Events      
T = Trace of Precipitation, MM = Missing Value Source: NWS Daily Summary

Daily Weather History Graph

Daily Weather History Graph

Search for Another Location

Airport or City:

Trip Planner

Search our weather history database for the weather conditions in past years. The results will help you decide how hot, cold, wet, or windy it might be!

Date:

Astronomy

Jan. 11, 2017 Rise Set
Actual Time 7:24 AM MST 5:13 PM MST
Civil Twilight 6:55 AM MST 5:42 PM MST
Nautical Twilight 6:23 AM MST 6:14 PM MST
Astronomical Twilight 5:52 AM MST 6:46 PM MST
Moon 4:50 PM MST (1/11) 6:23 AM MST (1/11)
Length of Visible Light 10h 46m
Length of Day
9h 49m
Waxing Gibbous, 99% of the Moon is Illuminated
Jan 11
Waxing Gibbous
Jan 12
Full
Jan 19
Last Quarter
Jan 27
New
Feb 3
First Quarter

Hourly Weather History & Observations

Time (MST) Temp. Windchill Dew Point Humidity Pressure Visibility Wind Dir Wind Speed Gust Speed Precip Events Conditions
12:53 AM 32.0 °F - 27.0 °F 82% 29.92 in 10.0 mi Calm Calm - N/A   Overcast
1:53 AM 30.9 °F 27.5 °F 27.0 °F 85% 29.91 in 10.0 mi ENE 3.5 mph - N/A   Overcast
2:53 AM 30.9 °F - 27.0 °F 85% 29.90 in 10.0 mi Calm Calm - N/A   Overcast
3:53 AM 32.0 °F - 26.1 °F 79% 29.88 in 10.0 mi Calm Calm - N/A   Overcast
4:53 AM 32.0 °F 27.5 °F 26.1 °F 79% 29.86 in 10.0 mi NE 4.6 mph - N/A   Overcast
5:53 AM 30.9 °F 27.5 °F 26.1 °F 82% 29.89 in 10.0 mi East 3.5 mph - N/A   Overcast
6:53 AM 32.0 °F 28.7 °F 26.1 °F 79% 29.89 in 10.0 mi ENE 3.5 mph - N/A   Overcast
7:53 AM 32.0 °F - 26.1 °F 79% 29.90 in 10.0 mi Calm Calm - N/A   Overcast
8:53 AM 33.1 °F 30.0 °F 26.1 °F 75% 29.91 in 10.0 mi NNE 3.5 mph - N/A   Overcast
9:53 AM 36.0 °F - 25.0 °F 64% 29.90 in 10.0 mi Calm Calm - N/A   Partly Cloudy
10:53 AM 37.9 °F - 24.1 °F 57% 29.89 in 10.0 mi Calm Calm - N/A   Overcast
11:53 AM 39.9 °F - 25.0 °F 55% 29.88 in 10.0 mi Calm Calm - N/A   Overcast
12:53 PM 43.0 °F 32.9 °F 21.0 °F 42% 29.82 in 10.0 mi West 27.6 mph 36.8 mph N/A   Overcast
1:53 PM 43.0 °F 34.2 °F 23.0 °F 45% 29.82 in 10.0 mi West 20.7 mph 36.8 mph N/A   Mostly Cloudy
2:53 PM 44.1 °F 35.2 °F 24.1 °F 45% 29.82 in 10.0 mi West 23.0 mph 33.4 mph N/A   Mostly Cloudy
3:53 PM 42.1 °F 33.1 °F 23.0 °F 47% 29.83 in 10.0 mi West 20.7 mph 34.5 mph N/A   Scattered Clouds
4:53 PM 41.0 °F 31.6 °F 21.9 °F 47% 29.84 in 10.0 mi West 20.7 mph 28.8 mph N/A   Clear
5:53 PM 39.0 °F 31.0 °F 21.0 °F 49% 29.86 in 10.0 mi West 13.8 mph - N/A   Partly Cloudy
6:53 PM 39.0 °F 30.6 °F 21.0 °F 49% 29.88 in 10.0 mi West 15.0 mph - N/A   Overcast
7:53 PM 37.0 °F 30.4 °F 21.9 °F 54% 29.90 in 10.0 mi SW 9.2 mph - N/A   Overcast
8:53 PM 36.0 °F 30.3 °F 21.9 °F 57% 29.92 in 10.0 mi WSW 6.9 mph - N/A   Partly Cloudy
9:53 PM 33.1 °F 26.9 °F 23.0 °F 66% 29.94 in 10.0 mi SW 6.9 mph - N/A   Clear
10:53 PM 32.0 °F 25.6 °F 23.0 °F 69% 29.96 in 10.0 mi SSW 6.9 mph - N/A   Clear
11:53 PM 32.0 °F 27.5 °F 23.0 °F 69% 29.96 in 10.0 mi WSW 4.6 mph - N/A   Clear